Time,TemperatureF,DewpointF,PressureIn,WindDirection,WindDirectionDegrees,WindSpeedMPH,WindSpeedGustMPH,Humidity,HourlyPrecipIn,Conditions,Clouds,dailyrainin,SolarRadiationWatts/m^2,SoftwareType,DateUTC
2013-07-23 00:00:00,76.0,70.0,-100.00,South,178,4.0,6.0,81,0.00,,,0.00,0.000000,,2013-07-23 05:00:00,
2013-07-23 00:22:00,76.0,70.0,-100.00,South,178,4.0,6.0,81,0.00,,,0.00,0.000000,,2013-07-23 05:22:00,
2013-07-23 00:33:00,76.0,70.0,-100.00,South,178,4.0,6.0,81,0.00,,,0.00,0.000000,,2013-07-23 05:33:00,
2013-07-23 00:44:00,76.0,70.0,-100.00,South,178,4.0,6.0,81,0.00,,,0.00,0.000000,,2013-07-23 05:44:00,
2013-07-23 00:52:00,76.0,70.0,-100.00,South,178,4.0,6.0,81,0.00,,,0.00,0.000000,,2013-07-23 05:52:00,
2013-07-23 01:00:00,75.0,69.0,-100.00,SSW,198,4.0,6.0,83,0.00,,,0.00,0.000000,,2013-07-23 06:00:00,
2013-07-23 01:22:00,75.0,69.0,-100.00,SSW,198,4.0,6.0,83,0.00,,,0.00,0.000000,,2013-07-23 06:22:00,
2013-07-23 01:33:00,75.0,69.0,-100.00,SSW,198,4.0,6.0,83,0.00,,,0.00,0.000000,,2013-07-23 06:33:00,
2013-07-23 01:42:00,75.0,69.0,-100.00,SSW,198,4.0,6.0,83,0.00,,,0.00,0.000000,,2013-07-23 06:42:00,
2013-07-23 01:52:00,75.0,69.0,-100.00,SSW,198,4.0,6.0,83,0.00,,,0.00,0.000000,,2013-07-23 06:52:00,
2013-07-23 02:00:00,74.0,70.0,-100.00,SSE,162,2.0,4.0,86,0.00,,,0.00,0.000000,,2013-07-23 07:00:00,
2013-07-23 02:22:00,74.0,70.0,-100.00,SSE,162,2.0,4.0,86,0.00,,,0.00,0.000000,,2013-07-23 07:22:00,
2013-07-23 02:33:00,74.0,70.0,-100.00,SSE,162,2.0,4.0,86,0.00,,,0.00,0.000000,,2013-07-23 07:33:00,
2013-07-23 02:42:00,74.0,70.0,-100.00,SSE,162,2.0,4.0,86,0.00,,,0.00,0.000000,,2013-07-23 07:42:00,
2013-07-23 02:52:00,74.0,70.0,-100.00,SSE,162,2.0,4.0,86,0.00,,,0.00,0.000000,,2013-07-23 07:52:00,
2013-07-23 03:00:00,73.0,70.0,-100.00,ENE,75,1.0,6.0,90,0.00,,,0.00,0.000000,,2013-07-23 08:00:00,
2013-07-23 03:22:00,73.0,70.0,-100.00,ENE,75,1.0,6.0,90,0.00,,,0.00,0.000000,,2013-07-23 08:22:00,
2013-07-23 03:33:00,73.0,70.0,-100.00,ENE,75,1.0,6.0,90,0.00,,,0.00,0.000000,,2013-07-23 08:33:00,
2013-07-23 03:43:00,73.0,70.0,-100.00,ENE,75,1.0,6.0,90,0.00,,,0.00,0.000000,,2013-07-23 08:43:00,
2013-07-23 03:52:00,73.0,70.0,-100.00,ENE,75,1.0,6.0,90,0.00,,,0.00,0.000000,,2013-07-23 08:52:00,
2013-07-23 04:00:00,71.0,68.0,-100.00,SSE,150,4.0,7.0,89,0.00,,,0.00,0.000000,,2013-07-23 09:00:00,
2013-07-23 04:22:00,71.0,68.0,-100.00,SSE,150,4.0,7.0,89,0.00,,,0.00,0.000000,,2013-07-23 09:22:00,
2013-07-23 04:33:00,71.0,68.0,-100.00,SSE,150,4.0,7.0,89,0.00,,,0.00,0.000000,,2013-07-23 09:33:00,
2013-07-23 04:43:00,71.0,68.0,-100.00,SSE,150,4.0,7.0,89,0.00,,,0.00,0.000000,,2013-07-23 09:43:00,
2013-07-23 04:53:00,71.0,68.0,-100.00,SSE,150,4.0,7.0,89,0.00,,,0.00,0.000000,,2013-07-23 09:53:00,
2013-07-23 05:00:00,71.0,69.0,-100.00,SE,145,4.0,5.0,92,0.00,,,0.00,0.000000,,2013-07-23 10:00:00,
2013-07-23 05:22:00,71.0,69.0,-100.00,SE,145,4.0,5.0,92,0.00,,,0.00,0.000000,,2013-07-23 10:22:00,
2013-07-23 05:32:00,71.0,69.0,-100.00,SE,145,4.0,5.0,92,0.00,,,0.00,0.000000,,2013-07-23 10:32:00,
2013-07-23 05:44:00,71.0,69.0,-100.00,SE,145,4.0,5.0,92,0.00,,,0.00,0.000000,,2013-07-23 10:44:00,
2013-07-23 05:52:00,71.0,69.0,-100.00,SE,145,4.0,5.0,92,0.00,,,0.00,0.000000,,2013-07-23 10:52:00,
2013-07-23 06:00:00,72.0,70.0,-100.00,South,176,5.0,9.0,93,0.00,,,0.00,1.000000,,2013-07-23 11:00:00,
2013-07-23 06:22:00,72.0,70.0,-100.00,South,176,5.0,9.0,93,0.00,,,0.00,1.000000,,2013-07-23 11:22:00,
2013-07-23 06:32:00,72.0,70.0,-100.00,South,176,5.0,9.0,93,0.00,,,0.00,1.000000,,2013-07-23 11:32:00,
2013-07-23 06:43:00,72.0,70.0,-100.00,South,176,5.0,9.0,93,0.00,,,0.00,1.000000,,2013-07-23 11:43:00,
2013-07-23 06:52:00,72.0,70.0,-100.00,South,176,5.0,9.0,93,0.00,,,0.00,1.000000,,2013-07-23 11:52:00,
2013-07-23 07:00:00,73.0,68.0,-100.00,NNW,339,2.0,7.0,85,0.00,,,0.00,12.000000,,2013-07-23 12:00:00,
2013-07-23 07:22:00,73.0,68.0,-100.00,NNW,339,2.0,7.0,85,0.00,,,0.00,12.000000,,2013-07-23 12:22:00,
2013-07-23 07:33:00,73.0,68.0,-100.00,NNW,339,2.0,7.0,85,0.00,,,0.00,12.000000,,2013-07-23 12:33:00,
2013-07-23 07:43:00,73.0,68.0,-100.00,NNW,339,2.0,7.0,85,0.00,,,0.00,12.000000,,2013-07-23 12:43:00,
2013-07-23 08:00:00,77.0,72.0,-100.00,NNW,334,1.0,5.0,84,0.00,,,0.00,114.000000,,2013-07-23 13:00:00,
2013-07-23 08:22:00,77.0,72.0,-100.00,NNW,334,1.0,5.0,84,0.00,,,0.00,114.000000,,2013-07-23 13:22:00,
2013-07-23 08:32:00,77.0,72.0,-100.00,NNW,334,1.0,5.0,84,0.00,,,0.00,114.000000,,2013-07-23 13:32:00,
2013-07-23 08:43:00,77.0,72.0,-100.00,NNW,334,1.0,5.0,84,0.00,,,0.00,114.000000,,2013-07-23 13:43:00,
2013-07-23 08:52:00,77.0,72.0,-100.00,NNW,334,1.0,5.0,84,0.00,,,0.00,114.000000,,2013-07-23 13:52:00,
2013-07-23 09:00:00,81.0,69.0,-100.00,West,261,6.0,11.0,66,0.00,,,0.00,278.000000,,2013-07-23 14:00:00,
2013-07-23 09:22:00,81.0,69.0,-100.00,West,261,6.0,11.0,66,0.00,,,0.00,278.000000,,2013-07-23 14:22:00,
2013-07-23 09:33:00,81.0,69.0,-100.00,West,261,6.0,11.0,66,0.00,,,0.00,278.000000,,2013-07-23 14:33:00,
2013-07-23 09:44:00,81.0,69.0,-100.00,West,261,6.0,11.0,66,0.00,,,0.00,278.000000,,2013-07-23 14:44:00,
2013-07-23 09:53:00,81.0,69.0,-100.00,West,261,6.0,11.0,66,0.00,,,0.00,278.000000,,2013-07-23 14:53:00,
2013-07-23 10:00:00,83.0,67.0,-100.00,WSW,244,6.0,10.0,58,0.00,,,0.00,436.000000,,2013-07-23 15:00:00,
2013-07-23 10:24:00,83.0,67.0,-100.00,WSW,244,6.0,10.0,58,0.00,,,0.00,436.000000,,2013-07-23 15:24:00,
2013-07-23 10:32:00,83.0,67.0,-100.00,WSW,244,6.0,10.0,58,0.00,,,0.00,436.000000,,2013-07-23 15:32:00,
2013-07-23 10:43:00,83.0,67.0,-100.00,WSW,244,6.0,10.0,58,0.00,,,0.00,436.000000,,2013-07-23 15:43:00,
2013-07-23 10:52:00,83.0,67.0,-100.00,WSW,244,6.0,10.0,58,0.00,,,0.00,436.000000,,2013-07-23 15:52:00,
2013-07-23 11:00:00,84.0,66.0,-100.00,SW,228,7.0,11.0,55,0.00,,,0.00,422.000000,,2013-07-23 16:00:00,
2013-07-23 11:22:00,84.0,66.0,-100.00,SW,228,7.0,11.0,55,0.00,,,0.00,422.000000,,2013-07-23 16:22:00,
2013-07-23 11:33:00,84.0,66.0,-100.00,SW,228,7.0,11.0,55,0.00,,,0.00,422.000000,,2013-07-23 16:33:00,
2013-07-23 11:43:00,84.0,66.0,-100.00,SW,228,7.0,11.0,55,0.00,,,0.00,422.000000,,2013-07-23 16:43:00,
2013-07-23 11:52:00,84.0,66.0,-100.00,SW,228,7.0,11.0,55,0.00,,,0.00,422.000000,,2013-07-23 16:52:00,
2013-07-23 12:00:00,86.0,68.0,-100.00,SW,219,7.0,12.0,55,0.00,,,0.00,552.000000,,2013-07-23 17:00:00,
2013-07-23 12:22:00,86.0,68.0,-100.00,SW,219,7.0,12.0,55,0.00,,,0.00,552.000000,,2013-07-23 17:22:00,
2013-07-23 12:32:00,86.0,68.0,-100.00,SW,219,7.0,12.0,55,0.00,,,0.00,552.000000,,2013-07-23 17:32:00,
2013-07-23 12:42:00,86.0,68.0,-100.00,SW,219,7.0,12.0,55,0.00,,,0.00,552.000000,,2013-07-23 17:42:00,
2013-07-23 12:56:00,86.0,68.0,-100.00,SW,219,7.0,12.0,55,0.00,,,0.00,552.000000,,2013-07-23 17:56:00,
2013-07-23 13:00:00,88.0,72.0,-100.00,West,271,8.0,15.0,59,0.00,,,0.00,776.000000,,2013-07-23 18:00:00,
2013-07-23 13:26:00,88.0,72.0,-100.00,West,271,8.0,15.0,59,0.00,,,0.00,776.000000,,2013-07-23 18:26:00,
2013-07-23 13:35:00,88.0,72.0,-100.00,West,271,8.0,15.0,59,0.00,,,0.00,776.000000,,2013-07-23 18:35:00,
2013-07-23 13:49:00,88.0,72.0,-100.00,West,271,8.0,15.0,59,0.00,,,0.00,776.000000,,2013-07-23 18:49:00,
2013-07-23 13:57:00,88.0,72.0,-100.00,West,271,8.0,15.0,59,0.00,,,0.00,776.000000,,2013-07-23 18:57:00,
2013-07-23 14:00:00,89.0,74.0,-100.00,WNW,299,9.0,14.0,61,0.00,,,0.00,649.000000,,2013-07-23 19:00:00,
2013-07-23 14:35:00,89.0,74.0,-100.00,WNW,299,9.0,14.0,61,0.00,,,0.00,649.000000,,2013-07-23 19:35:00,
2013-07-23 14:55:00,89.0,74.0,-100.00,WNW,299,9.0,14.0,61,0.00,,,0.00,649.000000,,2013-07-23 19:55:00,
2013-07-23 15:00:00,90.0,75.0,-100.00,WNW,289,7.0,12.0,61,0.00,,,0.00,597.000000,,2013-07-23 20:00:00,
2013-07-23 15:25:00,90.0,75.0,-100.00,WNW,289,7.0,12.0,61,0.00,,,0.00,597.000000,,2013-07-23 20:25:00,
2013-07-23 15:35:00,90.0,75.0,-100.00,WNW,289,7.0,12.0,61,0.00,,,0.00,597.000000,,2013-07-23 20:35:00,
2013-07-23 15:59:00,90.0,75.0,-100.00,WNW,289,7.0,12.0,61,0.00,,,0.00,597.000000,,2013-07-23 20:59:00,
2013-07-23 16:00:00,92.0,75.0,-100.00,NW,315,7.0,15.0,57,0.00,,,0.00,617.000000,,2013-07-23 21:00:00,
2013-07-23 16:24:00,92.0,75.0,-100.00,NW,315,7.0,15.0,57,0.00,,,0.00,617.000000,,2013-07-23 21:24:00,
2013-07-23 16:38:00,92.0,75.0,-100.00,NW,315,7.0,15.0,57,0.00,,,0.00,617.000000,,2013-07-23 21:38:00,
2013-07-23 16:48:00,92.0,75.0,-100.00,NW,315,7.0,15.0,57,0.00,,,0.00,617.000000,,2013-07-23 21:48:00,
2013-07-23 16:57:00,92.0,75.0,-100.00,NW,315,7.0,15.0,57,0.00,,,0.00,617.000000,,2013-07-23 21:57:00,
2013-07-23 17:00:00,92.0,73.0,-100.00,NNW,333,6.0,10.0,55,0.00,,,0.00,192.000000,,2013-07-23 22:00:00,
2013-07-23 17:24:00,92.0,73.0,-100.00,NNW,333,6.0,10.0,55,0.00,,,0.00,192.000000,,2013-07-23 22:24:00,
2013-07-23 17:36:00,92.0,73.0,-100.00,NNW,333,6.0,10.0,55,0.00,,,0.00,192.000000,,2013-07-23 22:36:00,
2013-07-23 17:47:00,92.0,73.0,-100.00,NNW,333,6.0,10.0,55,0.00,,,0.00,192.000000,,2013-07-23 22:47:00,
2013-07-23 18:00:00,89.0,68.0,-100.00,NNE,23,6.0,12.0,51,0.00,,,0.00,367.000000,,2013-07-23 23:00:00,
2013-07-23 18:26:00,89.0,68.0,-100.00,NNE,23,6.0,12.0,51,0.00,,,0.00,367.000000,,2013-07-23 23:26:00,
2013-07-23 18:37:00,89.0,68.0,-100.00,NNE,23,6.0,12.0,51,0.00,,,0.00,367.000000,,2013-07-23 23:37:00,
2013-07-23 18:46:00,89.0,68.0,-100.00,NNE,23,6.0,12.0,51,0.00,,,0.00,367.000000,,2013-07-23 23:46:00,
2013-07-23 18:59:00,89.0,68.0,-100.00,NNE,23,6.0,12.0,51,0.00,,,0.00,367.000000,,2013-07-23 23:59:00,
2013-07-23 19:00:00,85.0,70.0,-100.00,West,264,5.0,10.0,62,0.00,,,0.00,35.000000,,2013-07-24 00:00:00,
2013-07-23 19:26:00,85.0,70.0,-100.00,West,264,5.0,10.0,62,0.00,,,0.00,35.000000,,2013-07-24 00:26:00,
2013-07-23 19:34:00,85.0,70.0,-100.00,West,264,5.0,10.0,62,0.00,,,0.00,35.000000,,2013-07-24 00:34:00,
2013-07-23 19:50:00,85.0,70.0,-100.00,West,264,5.0,10.0,62,0.00,,,0.00,35.000000,,2013-07-24 00:50:00,
2013-07-23 19:58:00,85.0,70.0,-100.00,West,264,5.0,10.0,62,0.00,,,0.00,35.000000,,2013-07-24 00:58:00,
2013-07-23 20:00:00,71.0,59.0,-100.00,SSE,161,13.0,32.0,67,0.02,,,0.02,7.000000,,2013-07-24 01:00:00,
2013-07-23 21:27:00,69.0,66.0,-100.00,NW,305,4.0,13.0,90,0.02,,,0.04,8.000000,,2013-07-24 02:27:00,
2013-07-23 21:40:00,69.0,66.0,-100.00,NW,305,4.0,13.0,90,0.02,,,0.04,8.000000,,2013-07-24 02:40:00,
2013-07-23 21:48:00,69.0,66.0,-100.00,NW,305,4.0,13.0,90,0.02,,,0.04,8.000000,,2013-07-24 02:48:00,
2013-07-23 21:56:00,69.0,66.0,-100.00,NW,305,4.0,13.0,90,0.02,,,0.04,8.000000,,2013-07-24 02:56:00,
2013-07-23 22:00:00,68.0,64.0,-100.00,SW,228,4.0,7.0,88,0.00,,,0.04,0.000000,,2013-07-24 03:00:00,
2013-07-23 22:24:00,68.0,64.0,-100.00,SW,228,4.0,7.0,88,0.00,,,0.04,0.000000,,2013-07-24 03:24:00,
2013-07-23 22:39:00,68.0,64.0,-100.00,SW,228,4.0,7.0,88,0.00,,,0.04,0.000000,,2013-07-24 03:39:00,
2013-07-23 22:46:00,68.0,64.0,-100.00,SW,228,4.0,7.0,88,0.00,,,0.04,0.000000,,2013-07-24 03:46:00,
2013-07-23 22:57:00,68.0,64.0,-100.00,SW,228,4.0,7.0,88,0.00,,,0.04,0.000000,,2013-07-24 03:57:00,
2013-07-23 23:00:00,69.0,66.0,-100.00,NE,41,2.0,5.0,89,0.00,,,0.04,0.000000,,2013-07-24 04:00:00,
2013-07-23 23:22:00,69.0,66.0,-100.00,NE,41,2.0,5.0,89,0.00,,,0.04,0.000000,,2013-07-24 04:22:00,
2013-07-23 23:32:00,69.0,66.0,-100.00,NE,41,2.0,5.0,89,0.00,,,0.04,0.000000,,2013-07-24 04:32:00,
2013-07-23 23:43:00,69.0,66.0,-100.00,NE,41,2.0,5.0,89,0.00,,,0.04,0.000000,,2013-07-24 04:43:00,
2013-07-23 23:53:00,69.0,66.0,-100.00,NE,41,2.0,5.0,89,0.00,,,0.04,0.000000,,2013-07-24 04:53:00,